World > North America > United States > Texas

Hourly El Jardin, TX Regional Weather

Feedback E-mail the Weather

Quick WX

El Jardin, TX Weather Maps

°F °C°F °C
El Jardin Weather Map
UTC Time: 7/4/2022, 06:43
Your Time:

El Jardin, TX Regional Weather

Expires:202207040700;;650428
ASUS44 KSJT 040615
RWRSJT
WEST CENTRAL TEXAS REGIONAL WEATHER ROUNDUP
NATIONAL WEATHER SERVICE SAN ANGELO TX
100 AM CDT MON JUL 04 2022

NOTE: "FAIR" INDICATES FEW OR NO CLOUDS BELOW 12,000 FEET WITH NO
SIGNIFICANT WEATHER AND/OR OBSTRUCTIONS TO VISIBILITY.


TXZ229-232-234-239-242-243-245-247-249-250-
253-255-257-343-347-443-040700-
TEXAS COASTAL BEND, RIO GRANDE PLAINS DEEP SOUTH TEXAS
  
CITY           SKY/WX    TMP DP  RH WIND       PRES   REMARKS
VICTORIA       CLEAR     79  77  94 SE9       30.03S                  
BEEVILLE       FAIR      75  73  92 SE3       30.02S                  
ROCKPORT       PTCLDY    85  76  74 S10G21    30.02R                  
PORT ARANSAS   MOCLDY    84  76  78 SE10G20   30.04R                  
PORT LAVACA    CLEAR     81  75  83 SE6       30.04R                  
CORPUS CHRISTI PTCLDY    78  75  90 SE8       30.02R                  
KINGSVILLE NAS PTCLDY    81  76  84 SE6       30.01                   
COTULLA        CLEAR     84  70  62 SE13      30.00R                  
LAREDO         CLEAR     84  70  62 SE21G28   29.99R                  
BROWNSVILLE    PTCLDY    82  77  84 SE9       30.01F                  
PORT ISABEL    PTCLDY    82  77  84 SE13      30.01S                  
HEBBRONVILLE   CLEAR     78  72  81 S8        30.03S                  
MCALLEN        PTCLDY    80  74  81 SE12      30.01S                  
WESLACO        NOT AVBL                                          

SKY/WX - Weather  TMP - Temperature  DP - Dew Point  RH - Humidity
WIND - Wind Direction/Speed PRES - Barometric Pressure VSB - Visibility
WCI - Wind Chill Index E13G22 Wind - East Wind 13 mph/Gusts of 22 mph

Trending Headlines

El Jardin Radar Loop



El Jardin Quick Facts


National Two Day Weather Forecast


E-mail the El Jardin Weather Forecast

Voice your opinion or tell us about page issues...